Tracking 20945 objects as of 8-Jul-2020
HD Live streaming from Space Station
objects crossing your sky now

NOAA 8

Track NOAA 8 now!
10-day predictions
NOAA 8 is classified as:


NORAD ID: 13923
Int'l Code: 1983-022A
Perigee: 791.6 km
Apogee: 814.8 km
Inclination: 98.6 °
Period: 100.8 minutes
Semi major axis: 7174 km
RCS: 5.054 m2 (large)
Launch date: March 28, 1983
Source: United States (US)
Launch site: AIR FORCE WESTERN TEST RANGE (AFWTR)
aabbcc
Your satellite tracking list
Your tracking list is empty




NASA's NSSDC Master Catalog

Two Line Element Set (TLE):
1 13923U 83022A   20190.49856006 -.00000016  00000-0  11134-4 0  9995
2 13923  98.6193 175.4807 0016142 122.2501 238.0248 14.28705314941438
Source of the keplerian elements: AFSPC